H1 CPF 2 NER 2025 9 26 9 269 01 glonass142 H2 2001801 9142 45358 2025 9 26 0 0 0 2025 9 29 23 45 0 900 1 1 0 0 0 1 H9 10 0 60944 0.00000 0 13890903.022 -19245607.286 -9362223.624 10 0 60944 900.00000 0 14480460.436 -20029581.326 -6348698.225 10 0 60944 1800.00000 0 14764064.728 -20567951.063 -3211978.453 10 0 60944 2700.00000 0 14772844.278 -20814540.042 -12951.210 10 0 60944 3600.00000 0 14547549.349 -20732306.193 3186330.526 10 0 60944 4500.00000 0 14136617.769 -20295030.864 6323848.211 10 0 60944 5400.00000 0 13593932.880 -19488569.748 9338814.567 10 0 60944 6300.00000 0 12976368.921 -18311613.529 12172843.857 10 0 60944 7200.00000 0 12341227.444 -16775926.577 14771073.434 10 0 60944 8100.00000 0 11743672.569 -14906053.652 17083215.647 10 0 60944 9000.00000 0 11234272.512 -12738506.571 19064520.689 10 0 60944 9900.00000 0 10856750.090 -10320464.101 20676632.786 10 0 60944 10800.00000 0 10646036.043 -7708038.224 21888324.290 10 0 60944 11700.00000 0 10626706.252 -4964177.524 22676094.431 10 0 60944 12600.00000 0 10811868.117 -2156293.213 23024621.949 10 0 60944 13500.00000 0 11202542.739 646295.503 22927063.324 10 0 60944 14400.00000 0 11787569.236 3374992.575 22385190.930 10 0 60944 15300.00000 0 12544036.041 5964525.411 21409368.117 10 0 60944 16200.00000 0 13438222.255 8355408.032 20018360.966 10 0 60944 17100.00000 0 14427011.061 10496166.066 18238989.261 10 0 60944 18000.00000 0 15459717.377 12345232.002 16105622.086 10 0 60944 18900.00000 0 16480254.466 13872432.298 13659526.358 10 0 60944 19800.00000 0 17429549.593 15060004.512 10948079.436 10 0 60944 20700.00000 0 18248107.827 15903101.791 8023859.834 10 0 60944 21600.00000 0 18878616.234 16409763.352 4943632.723 10 0 60944 22500.00000 0 19268478.313 16600351.857 1767249.305 10 0 60944 23400.00000 0 19372170.825 16506481.135 -1443518.579 10 0 60944 24300.00000 0 19153322.141 16169479.426 -4626185.637 10 0 60944 25200.00000 0 18586422.607 15638453.262 -7718777.897 10 0 60944 26100.00000 0 17658092.806 14968034.360 -10661050.111 10 0 60944 27000.00000 0 16367854.240 14215905.686 -13395670.879 10 0 60944 27900.00000 0 14728368.139 13440212.402 -15869351.153 10 0 60944 28800.00000 0 12765130.822 12696968.490 -18033892.897 10 0 60944 29700.00000 0 10515637.237 12037569.957 -19847136.524 10 0 60944 30600.00000 0 8028046.999 11506520.867 -21273787.913 10 0 60944 31500.00000 0 5359408.428 11139469.178 -22286108.528 10 0 60944 32400.00000 0 2573514.774 10961635.910 -22864455.064 10 0 60944 33300.00000 0 -261517.761 10986704.133 -22997658.386 10 0 60944 34200.00000 0 -3075848.987 11216214.541 -22683234.743 10 0 60944 35100.00000 0 -5800582.271 11639492.616 -21927425.779 10 0 60944 36000.00000 0 -8370389.676 12234109.790 -20745067.235 10 0 60944 36900.00000 0 -10725985.703 12966858.292 -19159289.579 10 0 60944 37800.00000 0 -12816347.378 13795197.683 -17201057.152 10 0 60944 38700.00000 0 -14600589.241 14669111.205 -14908555.392 10 0 60944 39600.00000 0 -16049416.511 15533292.870 -12326438.715 10 0 60944 40500.00000 0 -17146097.528 16329572.408 -9504954.235 10 0 60944 41400.00000 0 -17886916.857 16999475.360 -6498958.833 10 0 60944 42300.00000 0 -18281092.205 17486810.058 -3366849.155 10 0 60944 43200.00000 0 -18350160.810 17740172.364 -169425.686 10 0 60944 44100.00000 0 -18126863.044 17715262.683 3031286.833 10 0 60944 45000.00000 0 -17653571.897 17376917.852 6173239.598 10 0 60944 45900.00000 0 -16980335.750 16700772.704 9195557.343 10 0 60944 46800.00000 0 -16162617.689 15674481.654 12039710.487 10 0 60944 47700.00000 0 -15258826.920 14298449.221 14650639.573 10 0 60944 48600.00000 0 -14327746.105 12586038.776 16977811.018 10 0 60944 49500.00000 0 -13425962.346 10563250.445 18976184.697 10 0 60944 50400.00000 0 -12605409.038 8267880.988 20607075.661 10 0 60944 51300.00000 0 -11911120.926 5748199.613 21838894.440 10 0 60944 52200.00000 0 -11379295.622 3061193.494 22647752.605 10 0 60944 53100.00000 0 -11035742.114 270454.257 23017922.668 10 0 60944 54000.00000 0 -10894780.773 -2556208.693 22942143.935 10 0 60944 54900.00000 0 -10958640.805 -5349330.945 22421768.508 10 0 60944 55800.00000 0 -11217380.650 -8040427.544 21466744.291 10 0 60944 56700.00000 0 -11649335.334 -10564591.604 20095434.641 10 0 60944 57600.00000 0 -12222072.966 -12862950.637 18334277.047 10 0 60944 58500.00000 0 -12893821.448 -14884879.576 16217286.126 10 0 60944 59400.00000 0 -13615306.650 -16589879.027 13785409.084 10 0 60944 60300.00000 0 -14331925.858 -17949040.738 11085744.680 10 0 60944 61200.00000 0 -14986165.766 -18946038.892 8170639.542 10 0 60944 62100.00000 0 -15520163.433 -19577605.427 5096678.423 10 0 60944 63000.00000 0 -15878302.014 -19853468.970 1923587.354 10 0 60944 63900.00000 0 -16009730.880 -19795759.487 -1286929.043 10 0 60944 64800.00000 0 -15870702.494 -19437903.440 -4472393.207 10 0 60944 65700.00000 0 -15426625.562 -18823055.995 -7570779.047 10 0 60944 66600.00000 0 -14653745.842 -18002136.699 -10521730.221 10 0 60944 67500.00000 0 -13540381.544 -17031552.221 -13267747.339 10 0 60944 68400.00000 0 -12087659.202 -15970703.209 -15755319.714 10 0 60944 69300.00000 0 -10309717.205 -14879381.692 -17935978.375 10 0 60944 70200.00000 0 -8233366.904 -13815170.060 -19767248.865 10 0 60944 71100.00000 0 -5897224.386 -12830952.508 -21213484.541 10 0 60944 72000.00000 0 -3350348.565 -11972644.823 -22246563.709 10 0 60944 72900.00000 0 -650442.202 -11277238.802 -22846436.950 10 0 60944 73800.00000 0 2138309.134 -10771243.919 -23001514.161 10 0 60944 74700.00000 0 4947669.911 -10469591.690 -22708884.180 10 0 60944 75600.00000 0 7707957.784 -10375048.294 -21974363.296 10 0 60944 76500.00000 0 10350708.608 -10478159.298 -20812372.357 10 0 60944 77400.00000 0 12811292.466 -10757727.669 -19245645.583 10 0 60944 78300.00000 0 15031372.169 -11181803.672 -17304777.419 10 0 60944 79200.00000 0 16961102.600 -11709143.660 -15027616.927 10 0 60944 80100.00000 0 18560980.207 -12291075.005 -12458522.107 10 0 60944 81000.00000 0 19803266.921 -12873687.465 -9647489.234 10 0 60944 81900.00000 0 20672930.690 -13400257.632 -6649174.636 10 0 60944 82800.00000 0 21168065.152 -13813803.554 -3521828.403 10 0 60944 83700.00000 0 21299772.861 -14059661.302 -326161.107 10 0 60944 84600.00000 0 21091518.889 -14087974.631 2875834.213 10 0 60944 85500.00000 0 20577983.691 -13855992.775 6022081.798 10 0 60945 0.00000 0 19803464.961 -13330079.734 9051621.189 10 0 60945 900.00000 0 18819896.225 -12487350.317 11905782.210 10 0 60945 1800.00000 0 17684567.155 -11316865.062 14529310.603 10 0 60945 2700.00000 0 16457640.096 -9820332.888 16871428.689 10 0 60945 3600.00000 0 15199567.768 -8012292.379 18886807.401 10 0 60945 4500.00000 0 13968519.447 -5919763.275 20536433.535 10 0 60945 5400.00000 0 12817922.648 -3581381.792 21788356.289 10 0 60945 6300.00000 0 11794222.221 -1046054.434 22618299.657 10 0 60945 7200.00000 0 10934949.674 1628815.329 23010129.631 10 0 60945 8100.00000 0 10267182.581 4379455.723 22956167.701 10 0 60945 9000.00000 0 9806457.974 7138124.364 22457344.732 10 0 60945 9900.00000 0 9556184.898 9835677.482 21523191.941 10 0 60945 10800.00000 0 9507580.860 12404205.917 20171668.480 10 0 60945 11700.00000 0 9640135.319 14779630.107 18428827.858 10 0 60945 12600.00000 0 9922581.509 16904147.367 16328328.369 10 0 60945 13500.00000 0 10314336.707 18728430.455 13910795.523 10 0 60945 14400.00000 0 10767351.282 20213486.082 11223047.361 10 0 60945 15300.00000 0 11228289.367 21332095.674 8317196.409 10 0 60945 16200.00000 0 11640949.664 22069777.674 5249644.690 10 0 60945 17100.00000 0 11948824.129 22425230.451 2079990.686 10 0 60945 18000.00000 0 12097685.919 22410236.519 -1130130.620 10 0 60945 18900.00000 0 12038096.149 22049031.532 -4318251.789 10 0 60945 19800.00000 0 11727721.959 21377164.253 -7422296.937 10 0 60945 20700.00000 0 11133366.029 20439895.507 -10381800.820 10 0 60945 21600.00000 0 10232619.722 19290203.918 -13139098.079 10 0 60945 22500.00000 0 9015067.942 17986483.169 -15640458.205 10 0 60945 23400.00000 0 7482992.886 16590028.803 -17837142.908 10 0 60945 24300.00000 0 5651545.323 15162421.514 -19686364.280 10 0 60945 25200.00000 0 3548374.689 13762918.266 -21152124.377 10 0 60945 26100.00000 0 1212732.535 12445961.966 -22205919.398 10 0 60945 27000.00000 0 -1305913.841 11258915.165 -22827294.654 10 0 60945 27900.00000 0 -3949699.962 10240113.346 -23004239.688 10 0 60945 28800.00000 0 -6654539.057 9417319.490 -22733416.247 10 0 60945 29700.00000 0 -9352562.503 8806644.315 -22020215.234 10 0 60945 30600.00000 0 -11974724.048 8411976.540 -20878642.193 10 0 60945 31500.00000 0 -14453459.266 8224945.845 -19331034.248 10 0 60945 32400.00000 0 -16725289.638 8225418.523 -17407614.714 10 0 60945 33300.00000 0 -18733263.168 8382503.331 -15145894.690 10 0 60945 34200.00000 0 -20429130.452 8656023.541 -12589933.891 10 0 60945 35100.00000 0 -21775166.408 8998391.633 -9789475.699 10 0 60945 36000.00000 0 -22745562.914 9356806.237 -6798973.705 10 0 60945 36900.00000 0 -23327335.588 9675677.600 -3676529.180 10 0 60945 37800.00000 0 -23520708.499 9899178.392 -482760.484 10 0 60945 38700.00000 0 -23338962.399 9973811.751 2720373.389 10 0 60945 39600.00000 0 -22807754.492 9850887.917 5870772.110 10 0 60945 40500.00000 0 -21963939.749 9488805.028 8907392.984 10 0 60945 41400.00000 0 -20853944.354 8855038.028 11771426.607 10 0 60945 42300.00000 0 -19531760.304 7927752.080 14407426.931 10 0 60945 43200.00000 0 -18056645.542 6696972.715 16764374.590 10 0 60945 44100.00000 0 -16490625.899 5165263.384 18796653.856 10 0 60945 45000.00000 0 -14895902.894 3347881.592 20464925.359 10 0 60945 45900.00000 0 -13332274.996 1272406.224 21736878.785 10 0 60945 46800.00000 0 -11854679.022 -1022149.620 22587852.050 10 0 60945 47700.00000 0 -10510953.250 -3486704.870 23001305.749 10 0 60945 48600.00000 0 -9339914.510 -6063900.845 22969144.290 10 0 60945 49500.00000 0 -8369828.581 -8690243.403 22491877.633 10 0 60945 50400.00000 0 -7617337.127 -11298509.952 21578620.237 10 0 60945 51300.00000 0 -7086885.665 -13820323.374 20246926.566 10 0 60945 52200.00000 0 -6770676.497 -16188787.705 18522465.286 10 0 60945 53100.00000 0 -6649148.913 -18341077.316 16438537.134 10 0 60945 54000.00000 0 -6691967.068 -20220872.780 14035444.342 10 0 60945 54900.00000 0 -6859474.647 -21780542.314 11359722.347 10 0 60945 55800.00000 0 -7104555.723 -22982977.631 8463247.432 10 0 60945 56700.00000 0 -7374823.740 -23803006.972 5402236.536 10 0 60945 57600.00000 0 -7615046.284 -24228325.356 2236158.070 10 0 60945 58500.00000 0 -7769702.814 -24259902.097 -973425.284 10 0 60945 59400.00000 0 -7785566.321 -23911847.600 -4164058.995 10 0 60945 60300.00000 0 -7614198.384 -23210744.285 -7273620.274 10 0 60945 61200.00000 0 -7214250.378 -22194469.425 -10241537.949 10 0 60945 62100.00000 0 -6553471.520 -20910559.353 -13009983.703 10 0 60945 63000.00000 0 -5610336.824 -19414184.275 -15525010.194 10 0 60945 63900.00000 0 -4375224.151 -17765819.565 -17737612.680 10 0 60945 64800.00000 0 -2851088.848 -16028712.418 -19604692.445 10 0 60945 65700.00000 0 -1053605.926 -14266251.378 -21089902.554 10 0 60945 66600.00000 0 989227.473 -12539350.167 -22164358.967 10 0 60945 67500.00000 0 3238013.581 -10903956.437 -22807203.095 10 0 60945 68400.00000 0 5643361.455 -9408790.323 -23006004.955 10 0 60945 69300.00000 0 8147721.790 -8093407.681 -22756999.495 10 0 60945 70200.00000 0 10687572.490 -6986668.695 -22065152.009 10 0 60945 71100.00000 0 13195863.747 -6105675.163 -20944052.031 10 0 60945 72000.00000 0 15604620.497 -5455219.659 -19415638.449 10 0 60945 72900.00000 0 17847593.741 -5027768.042 -17509761.886 10 0 60945 73800.00000 0 19862850.287 -4803974.151 -15263593.498 10 0 60945 74700.00000 0 21595193.215 -4753703.098 -12720892.343 10 0 60945 75600.00000 0 22998312.640 -4837518.174 -9931146.139 10 0 60945 76500.00000 0 24036577.861 -5008566.978 -6948602.623 10 0 60945 77400.00000 0 24686397.052 -5214785.760 -3831210.855 10 0 60945 78300.00000 0 24937088.988 -5401327.788 -639493.406 10 0 60945 79200.00000 0 24791231.733 -5513112.395 2564628.404 10 0 60945 80100.00000 0 24264475.157 -5497386.630 5719033.236 10 0 60945 81000.00000 0 23384826.477 -5306191.169 8762599.238 10 0 60945 81900.00000 0 22191439.871 -4898626.495 11636381.367 10 0 60945 82800.00000 0 20732961.722 -4242823.962 14284744.162 10 0 60945 83700.00000 0 19065501.144 -3317538.886 16656428.782 10 0 60945 84600.00000 0 17250310.701 -2113298.678 18705534.605 10 0 60945 85500.00000 0 15351273.871 -633057.572 20392397.405 10 0 60946 0.00000 0 13432303.511 1107669.920 21684348.140 10 0 60946 900.00000 0 11554757.798 3081204.405 22556339.327 10 0 60946 1800.00000 0 9774982.705 5248608.366 22991426.075 10 0 60946 2700.00000 0 8142078.716 7561071.300 22981095.349 10 0 60946 3600.00000 0 6695986.215 9961715.360 22525435.449 10 0 60946 4500.00000 0 5465967.331 12387749.321 21633142.939 10 0 60946 5400.00000 0 4469547.028 14772883.268 20321366.122 10 0 60946 6300.00000 0 3711957.235 17049905.468 18615387.031 10 0 60946 7200.00000 0 3186107.244 19153315.696 16548146.792 10 0 60946 8100.00000 0 2873081.756 21021906.436 14159622.094 10 0 60946 9000.00000 0 2743146.113 22601184.880 11496063.346 10 0 60946 9900.00000 0 2757216.826 23845534.565 8609108.021 10 0 60946 10800.00000 0 2868735.821 24720025.777 5554785.330 10 0 60946 11700.00000 0 3025869.406 25201798.038 2392430.907 10 0 60946 12600.00000 0 3173938.806 25280955.577 -816467.578 10 0 60946 13500.00000 0 3257978.830 24960937.013 -4009471.162 10 0 60946 14400.00000 0 3225315.263 24258342.636 -7124412.700 10 0 60946 15300.00000 0 3028050.412 23202225.726 -10100617.465 10 0 60946 16200.00000 0 2625349.834 21832877.218 -12880096.341 10 0 60946 17100.00000 0 1985431.501 20200154.755 -15408687.065 10 0 60946 18000.00000 0 1087171.353 18361426.667 -17637120.099 10 0 60946 18900.00000 0 -78744.463 16379217.868 -19521987.329 10 0 60946 19800.00000 0 -1509170.984 14318657.315 -21026594.004 10 0 60946 20700.00000 0 -3188388.134 12244834.968 -22121676.796 10 0 60946 21600.00000 0 -5088522.712 10220179.771 -22785973.920 10 0 60946 22500.00000 0 -7170491.702 8301968.973 -23006636.307 10 0 60946 23400.00000 0 -9385427.751 6540073.181 -22779472.221 10 0 60946 24300.00000 0 -11676527.324 4975031.180 -22109021.099 10 0 60946 25200.00000 0 -13981244.227 3636534.271 -21008455.807 10 0 60946 26100.00000 0 -16233736.693 2542382.327 -19499315.915 10 0 60946 27000.00000 0 -18367465.693 1697953.613 -17611077.867 10 0 60946 27900.00000 0 -20317835.910 1096208.631 -15380571.045 10 0 60946 28800.00000 0 -22024769.128 718225.691 -12851251.737 10 0 60946 29700.00000 0 -23435102.798 534243.533 -10072349.698 10 0 60946 30600.00000 0 -24504714.051 505165.040 -7097904.397 10 0 60946 31500.00000 0 -25200281.030 584456.834 -3985710.207 10 0 60946 32400.00000 0 -25500608.806 720363.108 -796191.402 10 0 60946 33300.00000 0 -25397465.479 858339.087 2408770.893 10 0 60946 34200.00000 0 -24895894.607 943600.588 5567036.856 10 0 60946 35100.00000 0 -24013992.045 923681.627 8617408.017 10 0 60946 36000.00000 0 -22782157.529 750891.991 11500806.205 10 0 60946 36900.00000 0 -21241853.112 384571.238 14161408.993 10 0 60946 37800.00000 0 -19443920.794 -206955.659 16547720.394 10 0 60946 38700.00000 0 -17446529.701 -1044803.179 18613557.023 10 0 60946 39600.00000 0 -15312838.148 -2138396.826 20318931.657 10 0 60946 40500.00000 0 -13108467.332 -3484839.054 21630818.232 10 0 60946 41400.00000 0 -10898890.824 -5068796.818 22523784.537 10 0 60946 42300.00000 0 -8746847.240 -6862916.507 22980481.179 10 0 60946 43200.00000 0 -6709882.348 -8828750.462 22991977.988 10 0 60946 44100.00000 0 -4838121.428 -10918158.248 22557941.509 10 0 60946 45000.00000 0 -3172363.371 -13075126.296 21686649.950 10 0 60946 45900.00000 0 -1742574.833 -15237932.209 20394844.647 10 0 60946 46800.00000 0 -566846.507 -17341565.539 18707419.873 10 0 60946 47700.00000 0 349145.297 -19320305.837 16656955.730 10 0 60946 48600.00000 0 1012149.340 -21110351.716 14283101.672 10 0 60946 49500.00000 0 1440821.840 -22652391.935 11631821.145 10 0 60946 50400.00000 0 1664702.007 -23894011.171 8754510.673 10 0 60946 51300.00000 0 1722723.585 -24791829.422 5707009.426 10 0 60946 52200.00000 0 1661325.058 -25313284.544 2548517.825 10 0 60946 53100.00000 0 1532238.408 -25437981.865 -659553.996 10 0 60946 54000.00000 0 1390050.469 -25158552.840 -3854785.230 10 0 60946 54900.00000 0 1289640.905 -24480985.253 -6974967.011 10 0 60946 55800.00000 0 1283606.575 -23424409.822 -9959323.734 10 0 60946 56700.00000 0 1419782.914 -22020351.259 -12749708.150 10 0 60946 57600.00000 0 1738969.043 -20311474.722 -15291745.714 10 0 60946 58500.00000 0 2272954.723 -18349880.175 -17535904.619 10 0 60946 59400.00000 0 3042934.376 -16195016.519 -19438469.697 10 0 60946 60300.00000 0 4058376.805 -13911303.483 -20962400.438 10 0 60946 61200.00000 0 5316399.686 -11565561.619 -22078055.926 10 0 60946 62100.00000 0 6801676.271 -9224358.659 -22763772.452 10 0 60946 63000.00000 0 8486879.013 -6951383.731 -23006282.671 10 0 60946 63900.00000 0 10333641.943 -4804959.431 -22800968.512 10 0 60946 64800.00000 0 12294001.623 -2835795.552 -22151943.446 10 0 60946 65700.00000 0 14312256.268 -1085077.657 -21071963.137 10 0 60946 66600.00000 0 16327165.017 417030.675 -19582166.897 10 0 60946 67500.00000 0 18274395.077 1652410.871 -17711655.658 10 0 60946 68400.00000 0 20089114.129 2615496.720 -15496915.311 10 0 60946 69300.00000 0 21708619.376 3313247.004 -12981097.269 10 0 60946 70200.00000 0 23074893.243 3764586.807 -10213170.838 10 0 60946 71100.00000 0 24136978.937 3999343.341 -7246964.385 10 0 60946 72000.00000 0 24853076.806 4056723.149 -4140114.473 10 0 60946 72900.00000 0 25192274.307 3983396.772 -952943.757 10 0 60946 73800.00000 0 25135837.894 3831273.139 2252710.248 10 0 60946 74700.00000 0 24678013.575 3655058.725 5414692.630 10 0 60946 75600.00000 0 23826303.520 3509705.189 8471731.548 10 0 60946 76500.00000 0 22601207.932 3447853.519 11364618.716 10 0 60946 77400.00000 0 21035443.669 3517382.496 14037347.446 10 0 60946 78300.00000 0 19172672.593 3759164.608 16438186.958 10 0 60946 79200.00000 0 17065792.795 4205123.610 18520673.077 10 0 60946 80100.00000 0 14774863.626 4876675.212 20244497.176 10 0 60946 81000.00000 0 12364750.218 5783616.343 21576277.288 10 0 60946 81900.00000 0 9902584.444 6923509.895 22490197.518 10 0 60946 82800.00000 0 7455146.568 8281591.388 22968504.256 10 0 60946 83700.00000 0 5086274.871 9831202.582 23001850.192 10 0 60946 84600.00000 0 2854409.307 11534735.419 22589479.684 10 0 60946 85500.00000 0 810369.846 13345048.672 21739251.705 10 0 60947 0.00000 0 -1004539.273 15207299.993 20467499.437 10 0 60947 900.00000 0 -2560022.365 17061119.851 18798727.455 10 0 60947 1800.00000 0 -3837818.261 18843035.886 16765152.853 10 0 60947 2700.00000 0 -4832220.118 20489051.182 14406095.500 10 0 60947 3600.00000 0 -5550064.926 21937267.102 11767229.307 10 0 60947 4500.00000 0 -6010194.010 23130442.276 8899707.136 10 0 60947 5400.00000 0 -6242406.855 24018380.149 5859175.316 10 0 60947 6300.00000 0 -6285952.137 24560044.139 2704696.223 10 0 60947 7200.00000 0 -6187619.707 24725310.372 -502400.365 10 0 60947 8100.00000 0 -5999514.423 24496282.818 -3699714.565 10 0 60947 9000.00000 0 -5776606.728 23868113.874 -6824998.442 10 0 60947 9900.00000 0 -5574164.656 22849294.321 -9817377.996 10 0 60947 10800.00000 0 -5445177.368 21461399.090 -12618550.135 10 0 60947 11700.00000 0 -5437880.896 19738298.503 -15173930.061 10 0 60947 12600.00000 0 -5593492.526 17724867.531 -17433725.471 10 0 60947 13500.00000 0 -5944251.321 15475247.013 -19353915.648 10 0 60947 14400.00000 0 -6511849.175 13050729.889 -20897115.573 10 0 60947 15300.00000 0 -7306319.962 10517361.363 -22033307.732 10 0 60947 16200.00000 0 -8325434.662 7943353.907 -22740427.220 10 0 60947 17100.00000 0 -9554628.694 5396425.568 -23004788.867 10 0 60947 18000.00000 0 -10967464.901 2941173.046 -22821348.381 10 0 60947 18900.00000 0 -12526612.866 636589.140 -22193793.022 10 0 60947 19800.00000 0 -14185303.370 -1466172.291 -21134460.604 10 0 60947 20700.00000 0 -15889196.659 -3325691.405 -19664089.114 10 0 60947 21600.00000 0 -17578585.833 -4911759.730 -17811402.497 10 0 60947 22500.00000 0 -19190842.608 -6206379.764 -15612541.308 10 0 60947 23400.00000 0 -20663002.565 -7204247.071 -13110349.943 10 0 60947 24300.00000 0 -21934381.299 -7912696.945 -10353534.896 10 0 60947 25200.00000 0 -22949111.701 -8351120.288 -7395710.914 10 0 60947 26100.00000 0 -23658496.083 -8549875.515 -4294354.134 10 0 60947 27000.00000 0 -24023074.793 -8548744.418 -1109682.928 10 0 60947 27900.00000 0 -24014325.054 -8394998.848 2096511.505 10 0 60947 28800.00000 0 -23615919.364 -8141161.137 5262061.877 10 0 60947 29700.00000 0 -22824491.379 -7842553.714 8325625.690 10 0 60947 30600.00000 0 -21649877.796 -7554741.825 11227867.221 10 0 60947 31500.00000 0 -20114826.618 -7330977.351 13912598.109 10 0 60947 32400.00000 0 -18254184.247 -7219751.305 16327855.206 10 0 60947 33300.00000 0 -16113595.302 -7262557.701 18426895.744 10 0 60947 34200.00000 0 -13747769.009 -7491962.454 20169091.568 10 0 60947 35100.00000 0 -11218383.564 -7930058.118 21520706.295 10 0 60947 36000.00000 0 -8591714.522 -8587369.208 22455541.426 10 0 60947 36900.00000 0 -5936084.366 -9462254.231 22955439.760 10 0 60947 37800.00000 0 -3319237.542 -10540830.091 23010637.029 10 0 60947 38700.00000 0 -805748.205 -11797423.125 22619955.177 10 0 60947 39600.00000 0 1545433.283 -13195529.294 21790833.340 10 0 60947 40500.00000 0 3683194.738 -14689245.119 20539195.343 10 0 60947 41400.00000 0 5566146.525 -16225111.357 18889155.263 10 0 60947 42300.00000 0 7164098.329 -17744294.063 16872565.467 10 0 60947 43200.00000 0 8459067.263 -19185013.297 14528414.423 10 0 60947 44100.00000 0 9445775.419 -20485118.894 11902084.437 10 0 60947 45000.00000 0 10131615.932 -21584705.902 9044482.392 10 0 60947 45900.00000 0 10536088.844 -22428659.941 6011059.259 10 0 60947 46800.00000 0 10689730.312 -22969024.973 2860736.689 10 0 60947 47700.00000 0 10632580.192 -23167092.825 -345238.670 10 0 60947 48600.00000 0 10412252.870 -22995125.022 -3544490.667 10 0 60947 49500.00000 0 10081693.340 -22437632.696 -6674735.090 10 0 60947 50400.00000 0 9696714.265 -21492158.876 -9675002.277 10 0 60947 51300.00000 0 9313419.396 -20169528.510 -12486835.921 10 0 60947 52200.00000 0 8985623.777 -18493554.273 -15055443.468 10 0 60947 53100.00000 0 8762381.478 -16500209.425 -17330774.442 10 0 60947 54000.00000 0 8685726.942 -14236301.793 -19268504.656 10 0 60947 54900.00000 0 8788726.893 -11757704.179 -20830906.366 10 0 60947 55800.00000 0 9093926.307 -9127215.356 -21987586.889 10 0 60947 56700.00000 0 9612254.972 -6412141.366 -22716081.152 10 0 60947 57600.00000 0 10342441.353 -3681698.480 -23002286.734 10 0 60947 58500.00000 0 11270958.738 -1004346.486 -22840733.281 10 0 60947 59400.00000 0 12372505.955 1554836.411 -22234681.564 10 0 60947 60300.00000 0 13611002.165 3936627.899 -21196050.869 10 0 60947 61200.00000 0 14941053.507 6089882.518 -19745176.806 10 0 60947 62100.00000 0 16309829.415 7973407.693 -17910404.932 10 0 60947 63000.00000 0 17659269.243 9557418.021 -15727528.728 10 0 60947 63900.00000 0 18928525.931 10824508.849 -13239083.499 10 0 60947 64800.00000 0 20056543.634 11770110.549 -10493510.528 10 0 60947 65700.00000 0 20984660.720 12402406.771 -7544208.259 10 0 60947 66600.00000 0 21659128.632 12741722.422 -4448489.473 10 0 60947 67500.00000 0 22033440.862 12819409.360 -1266465.147 10 0 60947 68400.00000 0 22070374.425 12676278.684 1940123.022 10 0 60947 69300.00000 0 21743658.457 12360647.330 5109098.544 10 0 60947 70200.00000 0 21039200.370 11926082.525 8179051.325 10 0 60947 71100.00000 0 19955818.556 11428939.962 11090521.061 10 0 60947 72000.00000 0 18505451.288 10925799.794 13787140.320 10 0 60947 72900.00000 0 16712833.233 10470908.401 16216715.902 10 0 60947 73800.00000 0 14614652.941 10113733.239 18332228.434 10 0 60947 74700.00000 0 12258226.022 9896733.098 20092731.902 10 0 60947 75600.00000 0 9699738.469 9853436.847 21464136.845 10 0 60947 76500.00000 0 7002131.987 10006910.846 22419863.127 10 0 60947 77400.00000 0 4232717.765 10368679.078 22941350.552 10 0 60947 78300.00000 0 1460616.025 10938141.346 23018418.085 10 0 60947 79200.00000 0 -1245874.239 11702514.452 22649464.988 10 0 60947 80100.00000 0 -3821867.963 12637299.749 21841509.824 10 0 60947 81000.00000 0 -6208343.221 13707258.779 20610065.979 10 0 60947 81900.00000 0 -8354346.611 14867857.716 18978855.130 10 0 60947 82800.00000 0 -10218864.094 16067121.671 16979362.918 10 0 60947 83700.00000 0 -11772280.069 17247822.700 14650243.985 10 0 60947 84600.00000 0 -12997364.106 18349910.928 12036586.360 10 0 60947 85500.00000 0 -13889744.029 19313087.506 9189048.128 99